Weather History for Point Lay, AK

Change the Weather History Date:

Wednesday, October 9, 2013

  Actual Average Record
Temperature  
Mean Temperature 29 °F -  
Max Temperature 32 °F 25 °F 35 °F (1998)
Min Temperature 28 °F 18 °F 1 °F (2001)
Degree Days  
Heating Degree Days 36    
Moisture  
Dew Point 28 °F    
Average Humidity 93    
Maximum Humidity 100    
Minimum Humidity 82    
Precipitation  
Precipitation 0.00 in - - ()
Sea Level Pressure  
Sea Level Pressure 29.35 in    
Wind  
Wind Speed 9 mph (NNW)    
Max Wind Speed 15 mph    
Max Gust Speed -    
Visibility 9 miles    
Events Snow    
Averages and records for this station are not official NWS values.
T = Trace of Precipitation, MM = Missing Value Source: NWS Daily Summary

Daily Weather History Graph

Daily Weather History Graph

Search for Another Location

Airport:

Trip Planner

Search our weather history database for the weather conditions in past years. The results will help you decide how hot, cold, wet, or windy it might be!

Date:

Astronomy

Oct. 09, 2013 Rise Set
Actual Time 9:41 AM AKDT 7:35 PM AKDT
Civil Twilight 8:40 AM AKDT 8:35 PM AKDT
Nautical Twilight 7:30 AM AKDT 9:45 PM AKDT
Astronomical Twilight 6:14 AM AKDT 11:00 PM AKDT
Moon 6:03 PM AKDT (10/9) 8:09 PM AKDT (10/9)
Length of Visible Light 11h 55m
Length of Day
9h 54m
Waxing Crescent, 27% of the Moon is Illuminated
Oct 9
Waxing Crescent
Oct 11
First Quarter
Oct 18
Full
Oct 26
Last Quarter
Nov 3
New

Hourly Weather History & Observations

Time (AKDT) Temp. Windchill Dew Point Humidity Pressure Visibility Wind Dir Wind Speed Gust Speed Precip Events Conditions
12:56 AM 28.0 °F 17.0 °F 26.1 °F 92% 29.14 in 8.0 mi NNE 13.8 mph - 0.00 in   Overcast
1:15 AM 28.4 °F 17.0 °F 26.6 °F 93% 29.13 in 10.0 mi NNE 15.0 mph - 0.00 in   Overcast
1:56 AM 29.1 °F 18.4 °F 27.1 °F 92% 29.15 in 10.0 mi NNE 13.8 mph - 0.00 in   Overcast
2:56 AM 29.1 °F 19.4 °F 27.1 °F 92% 29.16 in 10.0 mi NNE 11.5 mph - 0.00 in   Overcast
3:56 AM 29.1 °F 19.4 °F 27.1 °F 92% 29.18 in 10.0 mi NNE 11.5 mph - N/A   Overcast
4:56 AM 29.1 °F 20.0 °F 27.1 °F 92% 29.19 in 8.0 mi NNE 10.4 mph - 0.00 in Snow Light Snow
5:09 AM 28.4 °F 18.5 °F 26.6 °F 93% 29.18 in 5.0 mi NNE 11.5 mph - 0.00 in Snow Light Snow
5:56 AM 29.1 °F 18.9 °F 27.1 °F 92% 29.21 in 8.0 mi NNE 12.7 mph - 0.00 in Snow Light Snow
6:56 AM 29.1 °F 20.6 °F 27.1 °F 92% 29.23 in 10.0 mi NNE 9.2 mph - 0.00 in   Overcast
7:56 AM 28.0 °F 20.8 °F 27.1 °F 96% 29.25 in 10.0 mi North 6.9 mph - N/A   Mostly Cloudy
8:56 AM 29.1 °F 24.1 °F 26.1 °F 88% 29.27 in 10.0 mi NE 4.6 mph - N/A   Overcast
9:56 AM 29.1 °F 23.0 °F 27.1 °F 92% 29.29 in 10.0 mi NNW 5.8 mph - N/A   Overcast
10:56 AM 29.1 °F 23.0 °F 27.1 °F 92% 29.31 in 10.0 mi North 5.8 mph - N/A   Overcast
3:50 PM 30.2 °F 25.4 °F 30.2 °F 100% 29.39 in 10.0 mi West 4.6 mph - N/A   Scattered Clouds
6:28 PM 30.2 °F - 30.2 °F 100% 29.44 in 7.0 mi Calm Calm - N/A   Mostly Cloudy
6:56 PM 30.0 °F 26.5 °F 29.1 °F 96% 29.45 in 10.0 mi WSW 3.5 mph - N/A   Scattered Clouds
7:04 PM 30.2 °F 26.7 °F 28.4 °F 93% 29.45 in 10.0 mi WSW 3.5 mph - N/A   Mostly Cloudy
7:20 PM 30.2 °F - 28.4 °F 93% 29.45 in 10.0 mi Calm Calm - N/A   Mostly Cloudy
7:56 PM 30.0 °F - 28.0 °F 92% 29.47 in 10.0 mi Calm Calm - N/A   Mostly Cloudy
8:11 PM 30.2 °F - 28.4 °F 93% 29.46 in 10.0 mi Calm Calm - N/A   Mostly Cloudy
8:35 PM 30.2 °F 24.3 °F 28.4 °F 93% 29.46 in 10.0 mi NW 5.8 mph - N/A   Overcast
8:42 PM 30.2 °F 24.3 °F 28.4 °F 93% 29.47 in 10.0 mi North 5.8 mph - N/A   Mostly Cloudy
8:56 PM 30.0 °F 24.1 °F 28.0 °F 92% 29.48 in 10.0 mi North 5.8 mph - N/A   Scattered Clouds
9:15 PM 28.4 °F 23.3 °F 28.4 °F 100% 29.47 in 10.0 mi North 4.6 mph - N/A   Mostly Cloudy
9:26 PM 28.4 °F 23.3 °F 28.4 °F 100% 29.47 in 10.0 mi NNW 4.6 mph - N/A   Scattered Clouds
9:56 PM 28.4 °F 23.3 °F 28.4 °F 100% 29.48 in 10.0 mi NW 4.6 mph - N/A   Mostly Cloudy
10:23 PM 30.2 °F 23.4 °F 26.6 °F 86% 29.49 in 3.0 mi West 6.9 mph - 0.00 in   Overcast
10:56 PM 30.0 °F 24.1 °F 27.1 °F 89% 29.50 in 10.0 mi WSW 5.8 mph - 0.00 in   Mostly Cloudy
11:56 PM 31.1 °F 24.5 °F 26.1 °F 82% 29.52 in 10.0 mi West 6.9 mph - 0.00 in   Mostly Cloudy